Weather History for KMIC - July, 2014

Change the Weather History Date:

Thursday, July 3, 2014

  Actual Average Record
Temperature  
Mean Temperature 67 °F -  
Max Temperature 78 °F 79 °F 93 °F (2012)
Min Temperature 57 °F 59 °F 52 °F (2008)
Cooling Degree Days 2    
Growing Degree Days 17 (Base 50)    
Moisture  
Dew Point 48 °F    
Average Humidity 52    
Maximum Humidity 75    
Minimum Humidity 32    
Precipitation  
Precipitation 0.00 in - - ()
Sea Level Pressure  
Sea Level Pressure 30.15 in    
Wind  
Wind Speed 3 mph (NNW)    
Max Wind Speed 8 mph    
Max Gust Speed -    
Visibility 10 miles    
Events      
Averages and records for this station are not official NWS values.
T = Trace of Precipitation, MM = Missing Value Source: NWS Daily Summary

Daily Weather History Graph

Daily Weather History Graph

Search for Another Location

Airport or City:

Trip Planner

Search our weather history database for the weather conditions in past years. The results will help you decide how hot, cold, wet, or windy it might be!

Date:

Astronomy

Jul. 03, 2014 Rise Set
Actual Time 5:31 AM CDT 9:03 PM CDT
Civil Twilight 4:54 AM CDT 9:40 PM CDT
Nautical Twilight 4:05 AM CDT 10:29 PM CDT
Astronomical Twilight 3:01 AM CDT 11:33 PM CDT
Moon 11:48 AM CDT (7/3) No Moon Set
Length of Visible Light 16h 46m
Length of Day
15h 32m
Waxing Crescent, 33% of the Moon is Illuminated
Jul 3
Waxing Crescent
Jul 5
First Quarter
Jul 12
Full
Jul 18
Last Quarter
Jul 26
New

Hourly Weather History & Observations

Time (CDT) Temp. Dew Point Humidity Pressure Visibility Wind Dir Wind Speed Gust Speed Precip Events Conditions
12:53 AM 57.9 °F 48.9 °F 72% 30.09 in 10.0 mi NNW 3.5 mph - N/A   Mostly Cloudy
1:53 AM 60.1 °F 46.9 °F 62% 30.09 in 10.0 mi NW 3.5 mph - N/A   Overcast
2:53 AM 60.1 °F 48.0 °F 64% 30.09 in 10.0 mi NNW 3.5 mph - N/A   Overcast
3:53 AM 59.0 °F 46.9 °F 64% 30.10 in 10.0 mi Calm Calm - N/A   Mostly Cloudy
4:53 AM 59.0 °F 48.0 °F 67% 30.12 in 10.0 mi Calm Calm - N/A   Overcast
5:53 AM 57.0 °F 48.9 °F 74% 30.13 in 10.0 mi Calm Calm - N/A   Overcast
6:53 AM 59.0 °F 51.1 °F 75% 30.16 in 10.0 mi Calm Calm - N/A   Overcast
7:53 AM 62.1 °F 50.0 °F 65% 30.16 in 10.0 mi Calm Calm - N/A   Overcast
9:53 AM 69.1 °F 51.1 °F 53% 30.18 in 10.0 mi NNW 5.8 mph - N/A   Partly Cloudy
10:53 AM 72.0 °F 48.9 °F 44% 30.17 in 10.0 mi WNW 8.1 mph - N/A   Clear
11:53 AM 72.0 °F 44.1 °F 37% 30.18 in 10.0 mi WNW 8.1 mph - N/A   Scattered Clouds
12:53 PM 75.0 °F 45.0 °F 34% 30.17 in 10.0 mi NW 5.8 mph - N/A   Partly Cloudy
2:53 PM 75.0 °F 45.0 °F 34% 30.17 in 10.0 mi North 6.9 mph - N/A   Overcast
3:53 PM 75.9 °F 46.0 °F 35% 30.16 in 10.0 mi Variable 6.9 mph - N/A   Scattered Clouds
4:53 PM 77.0 °F 46.0 °F 33% 30.15 in 10.0 mi NW 4.6 mph - N/A   Partly Cloudy
5:53 PM 77.0 °F 45.0 °F 32% 30.15 in 10.0 mi NE 4.6 mph - N/A   Partly Cloudy
6:53 PM 75.0 °F 46.9 °F 37% 30.15 in 10.0 mi NNW 4.6 mph - N/A   Mostly Cloudy
7:53 PM 75.0 °F 46.9 °F 37% 30.15 in 10.0 mi North 3.5 mph - N/A   Clear
8:53 PM 69.1 °F 53.1 °F 57% 30.16 in 10.0 mi Calm Calm - N/A   Clear
11:53 PM 61.0 °F 51.1 °F 70% 30.19 in 8.0 mi Calm Calm - N/A   Clear